User: anonymous   Login
Location: Theydon Bois
(51.6750°N, 0.1050°E)
Time: 06:54:20
(UTC+00:00)
Language:

BREEZE-M DEB (TANK) - Orbit

View from above orbital plane
View from above orbital plane
View from above satellite
View from above satellite

Ground track
Ground track

The orbit data is extracted from the following two-line orbital elements,

1 31863U 07032B   18045.43779132 +.00000110 +00000-0 +16981-3 0  9997
2 31863 045.9419 118.0583 4970201 231.4317 072.6459 05.52164842212864
Epoch (UTC): 14 February 2018 10:30:25
Eccentricity: 0.4970201
inclination: 45.9419°
perigee height: 423 km
apogee height: 13863 km
right ascension of ascending node: 118.0583°
argument of perigee: 231.4317°
revolutions per day: 5.52164842
mean anomaly at epoch: 72.6459°
orbit number at epoch: 21286

The dashed part of the orbit path shows where the satellite is in the earth's shadow,  

DLR